Location: ??????
(56.0120°N, 39.1740°E)
Time: 07:47:34
(UTC+00:00)

Cosmos 1898 Rocket - Pass Details

Date: 14 April 2026
Orbit: 750 x 778 km, 74.0° (Epoch: 12 May)

Event Time Altitude Azimuth Distance (km) Brightness Sun altitude
Rises 17:06:47 0° 207° (SSW) 3,224 6.7 -5.8°
Reaches altitude 10° 17:09:09 10° 208° (SSW) 2,298 6.0 -6.1°
Maximum altitude 17:14:22 88° 294° (WNW) 769 3.6 -6.8°
Drops below altitude 10° 17:19:36 10° 28° (NNE) 2,295 6.0 -7.4°
Sets 17:21:58 0° 29° (NNE) 3,221 6.8 -7.7°
